User: anonymous   Login
Location: Esp�n
(42.4593°N, 0.2047°W)
Time: 11:46:14
(UTC+00:00)
Language:

Tiangong - Orbit

View from above orbital plane
View from above orbital plane
View from above satellite
View from above satellite

Ground track
Ground track

The orbit data is extracted from the following two-line orbital elements,

1 48274U 21035A   21264.74384352  .00003362  00000-0  41845-4 0  9997
2 48274  41.4702  53.9908 0003511 297.0688  62.9793 15.61624604 22790
Epoch (UTC): 21 September 2021 17:51:08
Eccentricity: 0.0003511
inclination: 41.4702°
perigee height: 380 km
apogee height: 385 km
right ascension of ascending node: 53.9908°
argument of perigee: 297.0688°
revolutions per day: 15.61624604
mean anomaly at epoch: 62.9793°
orbit number at epoch: 2279

The dashed part of the orbit path shows where the satellite is in the earth's shadow,  

DLR